Time,TemperatureF,DewpointF,PressureIn,WindDirection,WindDirectionDegrees,WindSpeedMPH,WindSpeedGustMPH,Humidity,HourlyPrecipIn,Conditions,Clouds,dailyrainin,SoftwareType,DateUTC
2013-02-19 00:00:00,32.5,22.9,30.21,SSW,192,0.0,2.0,68,0.00,,,0.00,WX3IN1Plus v1.30,2013-02-19 05:00:00,
2013-02-19 00:02:00,32.5,22.9,30.21,SW,223,0.0,2.0,68,0.00,,,0.00,WX3IN1Plus v1.30,2013-02-19 05:02:00,
2013-02-19 00:07:00,32.8,22.9,30.22,WSW,239,0.0,3.1,67,0.00,,,0.00,WX3IN1Plus v1.30,2013-02-19 05:07:00,
2013-02-19 00:12:00,32.7,22.9,30.22,WSW,239,0.0,0.0,67,0.00,,,0.00,WX3IN1Plus v1.30,2013-02-19 05:12:00,
2013-02-19 00:17:00,32.7,22.9,30.22,West,277,0.8,2.3,67,0.00,,,0.00,WX3IN1Plus v1.30,2013-02-19 05:17:00,
2013-02-19 00:22:00,32.5,22.1,30.22,SW,217,2.0,3.4,66,0.00,,,0.00,WX3IN1Plus v1.30,2013-02-19 05:22:00,
2013-02-19 00:27:00,32.6,22.5,30.22,WNW,298,1.6,3.4,66,0.00,,,0.00,WX3IN1Plus v1.30,2013-02-19 05:27:00,
2013-02-19 00:32:00,32.6,22.1,30.22,WSW,254,0.0,3.6,65,0.00,,,0.00,WX3IN1Plus v1.30,2013-02-19 05:32:00,
2013-02-19 00:37:00,32.6,22.1,30.22,SW,219,0.0,3.0,65,0.00,,,0.00,WX3IN1Plus v1.30,2013-02-19 05:37:00,
2013-02-19 00:42:00,32.6,22.1,30.21,SW,227,2.1,3.4,65,0.00,,,0.00,WX3IN1Plus v1.30,2013-02-19 05:42:00,
2013-02-19 00:47:00,32.7,21.8,30.21,SSW,208,1.3,3.4,64,0.00,,,0.00,WX3IN1Plus v1.30,2013-02-19 05:47:00,
2013-02-19 00:52:00,32.7,21.8,30.21,WSW,253,0.0,3.7,64,0.00,,,0.00,WX3IN1Plus v1.30,2013-02-19 05:52:00,
2013-02-19 00:57:00,32.6,21.8,30.20,WSW,247,0.0,2.7,64,0.00,,,0.00,WX3IN1Plus v1.30,2013-02-19 05:57:00,
2013-02-19 01:02:00,32.6,21.8,30.20,West,281,0.0,4.2,64,0.00,,,0.00,WX3IN1Plus v1.30,2013-02-19 06:02:00,
2013-02-19 01:07:00,32.5,21.4,30.19,West,281,0.0,0.0,64,0.00,,,0.00,WX3IN1Plus v1.30,2013-02-19 06:07:00,
2013-02-19 01:12:00,32.6,21.8,30.19,SW,233,0.0,1.5,64,0.00,,,0.00,WX3IN1Plus v1.30,2013-02-19 06:12:00,
2013-02-19 01:17:00,32.4,22.0,30.19,SW,233,0.0,0.0,65,0.00,,,0.00,WX3IN1Plus v1.30,2013-02-19 06:17:00,
2013-02-19 01:22:00,32.2,21.8,30.18,SW,233,0.0,0.0,65,0.00,,,0.00,WX3IN1Plus v1.30,2013-02-19 06:22:00,
2013-02-19 01:27:00,32.0,21.8,30.19,SW,233,0.0,0.0,65,0.00,,,0.00,WX3IN1Plus v1.30,2013-02-19 06:27:00,
2013-02-19 01:32:00,31.9,21.8,30.19,SW,233,0.0,0.0,65,0.00,,,0.00,WX3IN1Plus v1.30,2013-02-19 06:32:00,
2013-02-19 01:37:00,31.5,21.8,30.18,SW,233,0.0,0.0,66,0.00,,,0.00,WX3IN1Plus v1.30,2013-02-19 06:37:00,
2013-02-19 01:42:00,31.4,22.0,30.18,SW,233,0.0,0.0,67,0.00,,,0.00,WX3IN1Plus v1.30,2013-02-19 06:42:00,
2013-02-19 01:47:00,31.2,22.0,30.18,SW,233,0.0,0.0,67,0.00,,,0.00,WX3IN1Plus v1.30,2013-02-19 06:47:00,
2013-02-19 01:52:00,30.8,21.8,30.18,SW,233,0.0,0.0,68,0.00,,,0.00,WX3IN1Plus v1.30,2013-02-19 06:52:00,
2013-02-19 01:57:00,30.5,22.0,30.18,SW,233,0.0,0.0,69,0.00,,,0.00,WX3IN1Plus v1.30,2013-02-19 06:57:00,
2013-02-19 02:02:00,30.1,21.4,30.18,SW,233,0.0,0.0,69,0.00,,,0.00,WX3IN1Plus v1.30,2013-02-19 07:02:00,
2013-02-19 02:07:00,29.8,21.2,30.18,SW,233,0.0,0.0,69,0.00,,,0.00,WX3IN1Plus v1.30,2013-02-19 07:07:00,
2013-02-19 02:12:00,29.8,21.4,30.18,SW,233,0.0,0.0,70,0.00,,,0.00,WX3IN1Plus v1.30,2013-02-19 07:12:00,
2013-02-19 02:17:00,29.5,21.8,30.18,SW,233,0.0,0.0,71,0.00,,,0.00,WX3IN1Plus v1.30,2013-02-19 07:17:00,
2013-02-19 02:22:00,29.3,21.4,30.18,SW,233,0.0,0.0,71,0.00,,,0.00,WX3IN1Plus v1.30,2013-02-19 07:22:00,
2013-02-19 02:27:00,29.1,21.2,30.18,SW,233,0.0,0.0,71,0.00,,,0.00,WX3IN1Plus v1.30,2013-02-19 07:27:00,
2013-02-19 02:32:00,29.0,21.2,30.18,SW,233,0.0,0.0,71,0.00,,,0.00,WX3IN1Plus v1.30,2013-02-19 07:32:00,
2013-02-19 02:37:00,29.0,21.4,30.18,SW,233,0.0,0.0,72,0.00,,,0.00,WX3IN1Plus v1.30,2013-02-19 07:37:00,
2013-02-19 02:42:00,28.9,21.2,30.18,SW,233,0.0,0.0,72,0.00,,,0.00,WX3IN1Plus v1.30,2013-02-19 07:42:00,
2013-02-19 02:47:00,28.9,21.2,30.18,SW,233,0.0,0.0,72,0.00,,,0.00,WX3IN1Plus v1.30,2013-02-19 07:47:00,
2013-02-19 02:52:00,28.6,21.1,30.17,SW,233,0.0,0.0,72,0.00,,,0.00,WX3IN1Plus v1.30,2013-02-19 07:52:00,
2013-02-19 02:57:00,28.4,21.2,30.17,SW,233,0.0,0.0,73,0.00,,,0.00,WX3IN1Plus v1.30,2013-02-19 07:57:00,
2013-02-19 03:02:00,28.8,21.2,30.17,SW,233,0.0,0.0,72,0.00,,,0.00,WX3IN1Plus v1.30,2013-02-19 08:02:00,
2013-02-19 03:07:00,28.9,21.2,30.16,SW,233,0.0,0.0,72,0.00,,,0.00,WX3IN1Plus v1.30,2013-02-19 08:07:00,
2013-02-19 03:12:00,29.0,22.0,30.16,SW,233,0.0,0.0,73,0.00,,,0.00,WX3IN1Plus v1.30,2013-02-19 08:12:00,
2013-02-19 03:17:00,28.8,21.8,30.15,SW,233,0.0,0.0,73,0.00,,,0.00,WX3IN1Plus v1.30,2013-02-19 08:17:00,
2013-02-19 03:22:00,28.6,21.4,30.15,SW,233,0.0,0.0,73,0.00,,,0.00,WX3IN1Plus v1.30,2013-02-19 08:22:00,
2013-02-19 03:27:00,28.8,21.8,30.14,SW,233,1.3,1.3,73,0.00,,,0.00,WX3IN1Plus v1.30,2013-02-19 08:27:00,
2013-02-19 03:32:00,29.2,21.8,30.13,WSW,247,0.0,1.9,72,0.00,,,0.00,WX3IN1Plus v1.30,2013-02-19 08:32:00,
2013-02-19 03:37:00,30.0,22.0,30.13,West,262,2.7,4.8,71,0.00,,,0.00,WX3IN1Plus v1.30,2013-02-19 08:37:00,
2013-02-19 03:42:00,31.0,22.5,30.12,West,262,0.0,4.7,69,0.00,,,0.00,WX3IN1Plus v1.30,2013-02-19 08:42:00,
2013-02-19 03:47:00,31.4,22.1,30.12,SW,236,0.0,5.4,68,0.00,,,0.00,WX3IN1Plus v1.30,2013-02-19 08:47:00,
2013-02-19 03:52:00,32.1,22.0,30.12,SW,230,6.7,6.7,66,0.00,,,0.00,WX3IN1Plus v1.30,2013-02-19 08:52:00,
2013-02-19 03:57:00,32.8,22.1,30.12,SW,216,5.0,8.1,65,0.00,,,0.00,WX3IN1Plus v1.30,2013-02-19 08:57:00,
2013-02-19 04:02:00,33.1,22.7,30.12,West,262,0.0,5.4,65,0.00,,,0.00,WX3IN1Plus v1.30,2013-02-19 09:02:00,
2013-02-19 04:07:00,33.3,22.5,30.12,WSW,250,2.6,6.9,64,0.00,,,0.00,WX3IN1Plus v1.30,2013-02-19 09:07:00,
2013-02-19 04:12:00,33.6,22.1,30.12,WSW,248,1.4,5.9,63,0.00,,,0.00,WX3IN1Plus v1.30,2013-02-19 09:12:00,
2013-02-19 04:17:00,33.9,22.7,30.13,WSW,251,4.9,8.0,63,0.00,,,0.00,WX3IN1Plus v1.30,2013-02-19 09:17:00,
2013-02-19 04:22:00,33.9,22.7,30.12,WSW,241,0.0,5.2,63,0.00,,,0.00,WX3IN1Plus v1.30,2013-02-19 09:22:00,
2013-02-19 04:27:00,34.1,22.7,30.12,WSW,246,4.0,7.3,63,0.00,,,0.00,WX3IN1Plus v1.30,2013-02-19 09:27:00,
2013-02-19 04:32:00,34.2,22.9,30.12,SW,216,0.0,6.2,63,0.00,,,0.00,WX3IN1Plus v1.30,2013-02-19 09:32:00,
2013-02-19 04:37:00,34.4,23.2,30.11,SW,236,5.0,8.8,63,0.00,,,0.00,WX3IN1Plus v1.30,2013-02-19 09:37:00,
2013-02-19 04:42:00,34.4,22.7,30.11,South,185,3.1,5.8,62,0.00,,,0.00,WX3IN1Plus v1.30,2013-02-19 09:42:00,
2013-02-19 04:47:00,34.4,22.7,30.12,WSW,248,6.3,7.0,62,0.00,,,0.00,WX3IN1Plus v1.30,2013-02-19 09:47:00,
2013-02-19 04:52:00,34.6,22.9,30.11,WSW,248,3.1,6.5,62,0.00,,,0.00,WX3IN1Plus v1.30,2013-02-19 09:52:00,
2013-02-19 04:57:00,34.7,22.9,30.12,South,182,2.4,7.1,62,0.00,,,0.00,WX3IN1Plus v1.30,2013-02-19 09:57:00,
2013-02-19 05:02:00,34.7,22.9,30.11,SSW,199,1.4,8.2,62,0.00,,,0.00,WX3IN1Plus v1.30,2013-02-19 10:02:00,
2013-02-19 05:07:00,34.8,22.9,30.10,WSW,244,0.0,5.8,62,0.00,,,0.00,WX3IN1Plus v1.30,2013-02-19 10:07:00,
2013-02-19 05:12:00,34.8,22.9,30.10,West,262,2.6,3.9,62,0.00,,,0.00,WX3IN1Plus v1.30,2013-02-19 10:12:00,
2013-02-19 05:17:00,34.9,23.2,30.10,WSW,258,0.0,3.9,62,0.00,,,0.00,WX3IN1Plus v1.30,2013-02-19 10:17:00,
2013-02-19 05:22:00,34.9,23.2,30.09,WSW,258,2.3,4.1,62,0.00,,,0.00,WX3IN1Plus v1.30,2013-02-19 10:22:00,
2013-02-19 05:27:00,34.6,23.4,30.08,South,177,0.0,3.2,63,0.00,,,0.00,WX3IN1Plus v1.30,2013-02-19 10:27:00,
2013-02-19 05:32:00,34.5,23.2,30.08,SW,226,0.8,4.2,63,0.00,,,0.00,WX3IN1Plus v1.30,2013-02-19 10:32:00,
2013-02-19 05:37:00,34.7,23.4,30.07,SW,236,0.0,3.7,63,0.00,,,0.00,WX3IN1Plus v1.30,2013-02-19 10:37:00,
2013-02-19 05:43:00,34.9,23.6,30.08,WSW,247,2.1,5.2,63,0.00,,,0.00,WX3IN1Plus v1.30,2013-02-19 10:43:00,
2013-02-19 05:48:00,35.2,23.9,30.08,WSW,237,2.2,5.8,63,0.00,,,0.00,WX3IN1Plus v1.30,2013-02-19 10:48:00,
2013-02-19 05:53:00,35.4,23.4,30.07,WSW,258,2.7,9.3,62,0.00,,,0.00,WX3IN1Plus v1.30,2013-02-19 10:53:00,
2013-02-19 05:58:00,35.5,23.6,30.07,SW,222,2.1,6.5,62,0.00,,,0.00,WX3IN1Plus v1.30,2013-02-19 10:58:00,
2013-02-19 06:03:00,35.6,23.9,30.07,SW,233,4.7,9.0,62,0.00,,,0.00,WX3IN1Plus v1.30,2013-02-19 11:03:00,
2013-02-19 06:08:00,36.1,24.1,30.07,WSW,251,1.8,5.5,62,0.00,,,0.00,WX3IN1Plus v1.30,2013-02-19 11:08:00,
2013-02-19 06:13:00,35.9,24.1,30.06,SSW,201,0.2,6.7,62,0.00,,,0.00,WX3IN1Plus v1.30,2013-02-19 11:13:00,
2013-02-19 06:18:00,36.3,24.3,30.06,WSW,246,3.2,7.7,62,0.00,,,0.00,WX3IN1Plus v1.30,2013-02-19 11:18:00,
2013-02-19 06:23:00,36.2,24.1,30.05,WSW,240,3.1,9.1,61,0.00,,,0.00,WX3IN1Plus v1.30,2013-02-19 11:23:00,
2013-02-19 06:28:00,36.6,24.3,30.05,WSW,248,4.9,8.4,61,0.00,,,0.00,WX3IN1Plus v1.30,2013-02-19 11:28:00,
2013-02-19 06:33:00,36.7,24.7,30.05,SW,222,1.4,7.8,61,0.00,,,0.00,WX3IN1Plus v1.30,2013-02-19 11:33:00,
2013-02-19 06:38:00,36.7,24.7,30.05,WSW,253,4.7,6.7,61,0.00,,,0.00,WX3IN1Plus v1.30,2013-02-19 11:38:00,
2013-02-19 06:43:00,36.9,24.8,30.04,West,264,2.1,7.2,61,0.00,,,0.00,WX3IN1Plus v1.30,2013-02-19 11:43:00,
2013-02-19 06:48:00,37.0,24.8,30.04,West,265,4.1,8.5,61,0.00,,,0.00,WX3IN1Plus v1.30,2013-02-19 11:48:00,
2013-02-19 06:53:00,37.1,25.0,30.05,WSW,243,1.4,8.0,61,0.00,,,0.00,WX3IN1Plus v1.30,2013-02-19 11:53:00,
2013-02-19 06:58:00,37.3,24.7,30.04,SW,234,7.2,8.2,60,0.00,,,0.00,WX3IN1Plus v1.30,2013-02-19 11:58:00,
2013-02-19 07:03:00,37.4,24.8,30.04,WSW,247,1.1,8.7,60,0.00,,,0.00,WX3IN1Plus v1.30,2013-02-19 12:03:00,
2013-02-19 07:08:00,37.6,25.0,30.04,West,277,4.1,8.1,60,0.00,,,0.00,WX3IN1Plus v1.30,2013-02-19 12:08:00,
2013-02-19 07:13:00,37.7,25.0,30.04,SW,225,6.3,8.9,60,0.00,,,0.00,WX3IN1Plus v1.30,2013-02-19 12:13:00,
2013-02-19 07:18:00,37.8,25.0,30.04,WSW,247,5.2,8.2,60,0.00,,,0.00,WX3IN1Plus v1.30,2013-02-19 12:18:00,
2013-02-19 07:23:00,37.8,25.0,30.03,SSW,213,2.2,10.2,60,0.00,,,0.00,WX3IN1Plus v1.30,2013-02-19 12:23:00,
2013-02-19 07:28:00,38.0,25.4,30.03,WSW,247,6.6,11.6,60,0.00,,,0.00,WX3IN1Plus v1.30,2013-02-19 12:28:00,
2013-02-19 07:33:00,38.0,25.4,30.03,SW,232,1.9,8.4,60,0.00,,,0.00,WX3IN1Plus v1.30,2013-02-19 12:33:00,
2013-02-19 07:38:00,38.1,24.8,30.03,WSW,247,3.0,10.5,59,0.00,,,0.00,WX3IN1Plus v1.30,2013-02-19 12:38:00,
2013-02-19 07:43:00,38.1,24.8,30.03,SW,227,3.2,7.8,59,0.00,,,0.00,WX3IN1Plus v1.30,2013-02-19 12:43:00,
2013-02-19 07:48:00,38.3,25.4,30.03,SW,232,0.0,9.0,59,0.00,,,0.00,WX3IN1Plus v1.30,2013-02-19 12:48:00,
2013-02-19 07:53:00,38.4,25.4,30.03,SW,227,3.9,12.3,59,0.00,,,0.00,WX3IN1Plus v1.30,2013-02-19 12:53:00,
2013-02-19 07:58:00,38.4,25.4,30.03,WSW,250,3.9,11.0,59,0.00,,,0.00,WX3IN1Plus v1.30,2013-02-19 12:58:00,
2013-02-19 08:03:00,38.3,25.4,30.02,SE,142,1.4,6.7,59,0.00,,,0.00,WX3IN1Plus v1.30,2013-02-19 13:03:00,
2013-02-19 08:08:00,38.6,25.4,30.02,WSW,240,4.4,9.8,59,0.00,,,0.00,WX3IN1Plus v1.30,2013-02-19 13:08:00,
2013-02-19 08:13:00,38.9,25.7,30.02,SSW,205,6.5,8.7,59,0.00,,,0.00,WX3IN1Plus v1.30,2013-02-19 13:13:00,
2013-02-19 08:18:00,39.3,25.7,30.03,SW,234,4.9,11.3,58,0.00,,,0.00,WX3IN1Plus v1.30,2013-02-19 13:18:00,
2013-02-19 08:23:00,39.6,26.1,30.02,SSW,213,4.7,12.1,58,0.00,,,0.00,WX3IN1Plus v1.30,2013-02-19 13:23:00,
2013-02-19 08:28:00,40.0,26.1,30.02,SW,233,11.5,11.5,57,0.00,,,0.00,WX3IN1Plus v1.30,2013-02-19 13:28:00,
2013-02-19 08:33:00,40.5,26.1,30.02,SW,233,5.9,14.2,56,0.00,,,0.00,WX3IN1Plus v1.30,2013-02-19 13:33:00,
2013-02-19 08:38:00,40.5,26.1,30.03,WSW,246,7.3,12.1,56,0.00,,,0.00,WX3IN1Plus v1.30,2013-02-19 13:38:00,
2013-02-19 08:43:00,40.8,25.7,30.03,West,278,6.0,10.5,55,0.00,,,0.00,WX3IN1Plus v1.30,2013-02-19 13:43:00,
2013-02-19 08:48:00,41.2,26.3,30.03,West,265,3.6,14.6,55,0.00,,,0.00,WX3IN1Plus v1.30,2013-02-19 13:48:00,
2013-02-19 08:53:00,41.3,25.7,30.03,SW,216,4.4,13.0,54,0.00,,,0.00,WX3IN1Plus v1.30,2013-02-19 13:53:00,
2013-02-19 08:58:00,41.6,26.1,30.03,SW,225,1.8,15.7,54,0.00,,,0.00,WX3IN1Plus v1.30,2013-02-19 13:58:00,
2013-02-19 09:03:00,41.8,26.1,30.02,WSW,257,5.7,15.7,53,0.00,,,0.00,WX3IN1Plus v1.30,2013-02-19 14:03:00,
2013-02-19 09:08:00,41.7,25.7,30.02,WSW,257,8.9,16.3,53,0.00,,,0.00,WX3IN1Plus v1.30,2013-02-19 14:08:00,
2013-02-19 09:13:00,42.0,26.3,30.02,WSW,239,7.2,11.4,53,0.00,,,0.00,WX3IN1Plus v1.30,2013-02-19 14:13:00,
2013-02-19 09:18:00,42.0,26.3,30.02,NW,315,3.1,13.6,53,0.00,,,0.00,WX3IN1Plus v1.30,2013-02-19 14:18:00,
2013-02-19 09:23:00,42.0,26.5,30.02,WSW,239,16.9,16.9,54,0.00,,,0.00,WX3IN1Plus v1.30,2013-02-19 14:23:00,
2013-02-19 09:28:00,42.1,26.3,30.02,WSW,255,8.2,17.1,53,0.00,,,0.00,WX3IN1Plus v1.30,2013-02-19 14:28:00,
2013-02-19 09:33:00,42.0,26.3,30.02,WSW,240,5.2,12.9,53,0.00,,,0.00,WX3IN1Plus v1.30,2013-02-19 14:33:00,
2013-02-19 09:38:00,42.1,26.3,30.02,West,261,10.7,20.2,53,0.00,,,0.00,WX3IN1Plus v1.30,2013-02-19 14:38:00,
2013-02-19 09:43:00,42.4,26.5,30.02,WSW,241,5.5,15.8,53,0.00,,,0.00,WX3IN1Plus v1.30,2013-02-19 14:43:00,
2013-02-19 09:48:00,42.6,26.8,30.02,WSW,248,6.2,11.3,53,0.00,,,0.00,WX3IN1Plus v1.30,2013-02-19 14:48:00,
2013-02-19 09:53:00,42.5,28.4,30.02,WSW,251,3.7,17.7,57,0.00,,,0.00,WX3IN1Plus v1.30,2013-02-19 14:53:00,
2013-02-19 09:58:00,42.3,29.9,30.02,WNW,284,3.6,13.3,61,0.00,,,0.00,WX3IN1Plus v1.30,2013-02-19 14:58:00,
2013-02-19 10:03:00,41.8,30.4,30.02,WSW,243,11.8,11.8,64,0.00,,,0.00,WX3IN1Plus v1.30,2013-02-19 15:03:00,
2013-02-19 10:08:00,41.3,30.6,30.02,WSW,239,10.4,15.4,66,0.00,,,0.00,WX3IN1Plus v1.30,2013-02-19 15:08:00,
2013-02-19 10:13:00,41.1,31.0,30.02,West,268,9.5,14.1,67,0.00,,,0.00,WX3IN1Plus v1.30,2013-02-19 15:13:00,
2013-02-19 10:18:00,41.1,31.1,30.01,West,272,6.7,13.1,68,0.00,,,0.00,WX3IN1Plus v1.30,2013-02-19 15:18:00,
2013-02-19 10:23:00,40.8,31.3,30.01,WSW,250,6.8,15.6,69,0.00,,,0.00,WX3IN1Plus v1.30,2013-02-19 15:23:00,
2013-02-19 10:28:00,40.8,31.7,30.00,WSW,246,4.6,12.8,70,0.00,,,0.00,WX3IN1Plus v1.30,2013-02-19 15:28:00,
2013-02-19 10:33:00,40.8,32.0,30.00,WNW,296,5.2,12.8,71,0.00,,,0.00,WX3IN1Plus v1.30,2013-02-19 15:33:00,
2013-02-19 10:38:00,40.7,32.1,30.00,West,264,8.0,14.1,72,0.00,,,0.00,WX3IN1Plus v1.30,2013-02-19 15:38:00,
2013-02-19 10:43:00,40.6,32.3,30.01,WSW,247,8.4,10.2,73,0.00,,,0.00,WX3IN1Plus v1.30,2013-02-19 15:43:00,
2013-02-19 10:48:00,40.9,32.1,30.00,West,272,4.1,9.3,72,0.00,,,0.00,WX3IN1Plus v1.30,2013-02-19 15:48:00,
2013-02-19 10:53:00,41.2,33.0,30.00,WSW,246,8.0,14.0,73,0.00,,,0.00,WX3IN1Plus v1.30,2013-02-19 15:53:00,
2013-02-19 10:58:00,41.1,33.0,30.00,SW,232,2.2,13.1,74,0.00,,,0.00,WX3IN1Plus v1.30,2013-02-19 15:58:00,
2013-02-19 11:03:00,40.8,33.6,29.99,WSW,258,5.0,12.5,76,0.00,,,0.00,WX3IN1Plus v1.30,2013-02-19 16:03:00,
2013-02-19 11:08:00,40.5,33.6,29.99,West,262,6.1,9.0,77,0.00,,,0.00,WX3IN1Plus v1.30,2013-02-19 16:08:00,
2013-02-19 11:13:00,40.3,33.9,29.98,WSW,255,7.2,10.2,79,0.00,,,0.00,WX3IN1Plus v1.30,2013-02-19 16:13:00,
2013-02-19 11:18:00,40.0,34.3,29.98,WSW,255,7.7,8.8,81,0.00,,,0.00,WX3IN1Plus v1.30,2013-02-19 16:18:00,
2013-02-19 11:23:00,39.9,34.3,29.97,WSW,250,8.4,9.6,82,0.00,,,0.00,WX3IN1Plus v1.30,2013-02-19 16:23:00,
2013-02-19 11:28:00,39.8,34.7,29.97,WSW,248,4.1,11.1,83,0.00,,,0.00,WX3IN1Plus v1.30,2013-02-19 16:28:00,
2013-02-19 11:33:00,39.7,34.8,29.95,West,268,7.8,12.3,84,0.00,,,0.00,WX3IN1Plus v1.30,2013-02-19 16:33:00,
2013-02-19 11:38:00,39.8,35.2,29.95,West,260,7.0,11.7,84,0.00,,,0.00,WX3IN1Plus v1.30,2013-02-19 16:38:00,
2013-02-19 11:43:00,39.8,35.4,29.94,WSW,250,6.0,12.4,85,0.00,,,0.00,WX3IN1Plus v1.30,2013-02-19 16:43:00,
2013-02-19 11:48:00,39.9,35.4,29.94,WSW,250,3.1,8.5,85,0.00,,,0.00,WX3IN1Plus v1.30,2013-02-19 16:48:00,
2013-02-19 11:53:00,40.1,36.1,29.93,WSW,254,4.5,12.2,86,0.00,,,0.00,WX3IN1Plus v1.30,2013-02-19 16:53:00,
2013-02-19 11:58:00,40.1,35.9,29.93,WSW,247,5.0,11.6,85,0.00,,,0.00,WX3IN1Plus v1.30,2013-02-19 16:58:00,
2013-02-19 12:03:00,40.3,35.9,29.93,West,260,7.7,10.3,85,0.00,,,0.00,WX3IN1Plus v1.30,2013-02-19 17:03:00,
2013-02-19 12:08:00,40.4,35.9,29.92,WSW,254,5.7,13.1,85,0.00,,,0.00,WX3IN1Plus v1.30,2013-02-19 17:08:00,
2013-02-19 12:13:00,40.2,35.9,29.92,WSW,254,6.2,9.8,85,0.00,,,0.00,WX3IN1Plus v1.30,2013-02-19 17:13:00,
2013-02-19 12:18:00,40.2,36.1,29.91,West,271,8.0,11.1,86,0.00,,,0.00,WX3IN1Plus v1.30,2013-02-19 17:18:00,
2013-02-19 12:23:00,40.4,36.5,29.91,WSW,237,5.2,10.3,87,0.00,,,0.00,WX3IN1Plus v1.30,2013-02-19 17:23:00,
2013-02-19 12:28:00,40.4,36.5,29.90,WSW,254,3.6,12.2,87,0.00,,,0.00,WX3IN1Plus v1.30,2013-02-19 17:28:00,
2013-02-19 12:33:00,40.3,36.6,29.90,West,270,4.8,11.1,88,0.00,,,0.00,WX3IN1Plus v1.30,2013-02-19 17:33:00,
2013-02-19 12:38:00,40.6,36.8,29.89,SSW,194,3.2,11.9,88,0.00,,,0.00,WX3IN1Plus v1.30,2013-02-19 17:38:00,
2013-02-19 12:43:00,40.5,36.8,29.89,WNW,286,9.0,13.9,88,0.00,,,0.00,WX3IN1Plus v1.30,2013-02-19 17:43:00,
2013-02-19 12:48:00,40.5,36.8,29.88,SSW,210,8.8,19.5,88,0.00,,,0.00,WX3IN1Plus v1.30,2013-02-19 17:48:00,
2013-02-19 12:53:00,40.8,37.2,29.88,WSW,237,7.1,11.6,88,0.00,,,0.00,WX3IN1Plus v1.30,2013-02-19 17:53:00,
2013-02-19 12:58:00,41.0,37.7,29.88,SSE,168,2.0,9.9,89,0.00,,,0.00,WX3IN1Plus v1.30,2013-02-19 17:58:00,
2013-02-19 13:03:00,41.1,37.7,29.87,West,261,5.9,13.9,89,0.00,,,0.00,WX3IN1Plus v1.30,2013-02-19 18:03:00,
2013-02-19 13:08:00,41.1,37.7,29.86,West,262,5.4,11.2,89,0.00,,,0.00,WX3IN1Plus v1.30,2013-02-19 18:08:00,
2013-02-19 13:13:00,41.1,37.4,29.86,WSW,253,4.6,16.1,88,0.00,,,0.00,WX3IN1Plus v1.30,2013-02-19 18:13:00,
2013-02-19 13:18:00,41.2,37.7,29.86,WSW,257,4.2,12.4,88,0.00,,,0.00,WX3IN1Plus v1.30,2013-02-19 18:18:00,
2013-02-19 13:23:00,41.3,37.9,29.86,WSW,246,4.1,10.0,89,0.00,,,0.00,WX3IN1Plus v1.30,2013-02-19 18:23:00,
2013-02-19 13:28:00,41.6,38.1,29.86,WSW,243,8.2,10.8,89,0.00,,,0.00,WX3IN1Plus v1.30,2013-02-19 18:28:00,
2013-02-19 13:33:00,41.7,38.1,29.86,SW,216,4.9,10.1,89,0.00,,,0.00,WX3IN1Plus v1.30,2013-02-19 18:33:00,
2013-02-19 13:38:00,41.8,38.4,29.86,SW,230,4.6,9.6,89,0.00,,,0.00,WX3IN1Plus v1.30,2013-02-19 18:38:00,
2013-02-19 13:43:00,41.9,38.6,29.86,West,265,6.0,9.1,89,0.00,,,0.00,WX3IN1Plus v1.30,2013-02-19 18:43:00,
2013-02-19 13:48:00,41.8,38.4,29.85,West,262,2.9,10.0,89,0.00,,,0.00,WX3IN1Plus v1.30,2013-02-19 18:48:00,
2013-02-19 13:53:00,42.1,38.6,29.85,West,270,8.0,9.2,89,0.00,,,0.00,WX3IN1Plus v1.30,2013-02-19 18:53:00,
2013-02-19 13:58:00,42.1,38.6,29.84,West,261,5.1,13.7,89,0.00,,,0.00,WX3IN1Plus v1.30,2013-02-19 18:58:00,
2013-02-19 14:03:00,42.1,38.6,29.84,SSE,154,4.7,9.1,89,0.00,,,0.00,WX3IN1Plus v1.30,2013-02-19 19:03:00,
2013-02-19 14:08:00,42.2,38.6,29.83,WSW,250,12.8,12.9,89,0.00,,,0.00,WX3IN1Plus v1.30,2013-02-19 19:08:00,
2013-02-19 14:13:00,42.4,39.0,29.83,WNW,291,5.7,14.0,89,0.00,,,0.00,WX3IN1Plus v1.30,2013-02-19 19:13:00,
2013-02-19 14:18:00,42.4,39.0,29.82,West,264,4.8,10.6,89,0.00,,,0.00,WX3IN1Plus v1.30,2013-02-19 19:18:00,
2013-02-19 14:23:00,42.5,39.2,29.82,West,260,6.4,9.8,89,0.00,,,0.00,WX3IN1Plus v1.30,2013-02-19 19:23:00,
2013-02-19 14:28:00,42.6,39.2,29.81,WSW,251,4.0,10.3,89,0.00,,,0.00,WX3IN1Plus v1.30,2013-02-19 19:28:00,
2013-02-19 14:33:00,42.7,39.2,29.81,WSW,247,5.8,8.7,89,0.00,,,0.00,WX3IN1Plus v1.30,2013-02-19 19:33:00,
2013-02-19 14:38:00,42.8,39.5,29.81,WSW,250,9.7,13.4,89,0.00,,,0.00,WX3IN1Plus v1.30,2013-02-19 19:38:00,
2013-02-19 14:43:00,42.6,39.2,29.80,SW,232,7.5,11.8,89,0.00,,,0.00,WX3IN1Plus v1.30,2013-02-19 19:43:00,
2013-02-19 14:48:00,42.9,39.5,29.80,West,262,7.1,14.1,89,0.00,,,0.00,WX3IN1Plus v1.30,2013-02-19 19:48:00,
2013-02-19 14:53:00,43.0,39.5,29.79,WSW,241,4.6,10.8,88,0.00,,,0.00,WX3IN1Plus v1.30,2013-02-19 19:53:00,
2013-02-19 14:58:00,43.2,39.5,29.79,WSW,258,7.8,11.6,88,0.00,,,0.00,WX3IN1Plus v1.30,2013-02-19 19:58:00,
2013-02-19 15:03:00,43.3,39.5,29.79,WSW,239,6.5,11.9,88,0.00,,,0.00,WX3IN1Plus v1.30,2013-02-19 20:03:00,
2013-02-19 15:08:00,43.2,39.5,29.79,SW,225,6.0,10.1,88,0.00,,,0.00,WX3IN1Plus v1.30,2013-02-19 20:08:00,
2013-02-19 15:13:00,43.4,39.7,29.80,SW,234,4.7,9.9,88,0.00,,,0.00,WX3IN1Plus v1.30,2013-02-19 20:13:00,
2013-02-19 15:18:00,43.5,39.7,29.79,West,262,5.0,13.1,88,0.00,,,0.00,WX3IN1Plus v1.30,2013-02-19 20:18:00,
2013-02-19 15:23:00,43.6,39.9,29.79,SW,219,3.0,9.1,88,0.00,,,0.00,WX3IN1Plus v1.30,2013-02-19 20:23:00,
2013-02-19 15:28:00,43.5,39.7,29.79,WSW,250,3.3,13.6,88,0.00,,,0.00,WX3IN1Plus v1.30,2013-02-19 20:28:00,
2013-02-19 15:33:00,43.9,40.2,29.79,WSW,241,7.4,11.0,88,0.00,,,0.00,WX3IN1Plus v1.30,2013-02-19 20:33:00,
2013-02-19 15:38:00,43.9,39.9,29.78,SW,234,6.5,12.5,87,0.00,,,0.00,WX3IN1Plus v1.30,2013-02-19 20:38:00,
2013-02-19 15:43:00,44.1,40.2,29.78,WSW,254,8.7,17.8,87,0.00,,,0.00,WX3IN1Plus v1.30,2013-02-19 20:43:00,
2013-02-19 15:48:00,44.0,39.9,29.78,WSW,257,6.2,15.8,87,0.00,,,0.00,WX3IN1Plus v1.30,2013-02-19 20:48:00,
2013-02-19 15:53:00,44.1,40.2,29.78,SW,219,6.8,15.0,87,0.00,,,0.00,WX3IN1Plus v1.30,2013-02-19 20:53:00,
2013-02-19 15:58:00,44.2,40.2,29.78,WSW,253,8.2,10.5,87,0.00,,,0.00,WX3IN1Plus v1.30,2013-02-19 20:58:00,
2013-02-19 16:03:00,44.2,40.2,29.78,SSW,203,6.4,14.4,87,0.00,,,0.00,WX3IN1Plus v1.30,2013-02-19 21:03:00,
2013-02-19 16:08:00,44.0,39.9,29.77,WSW,258,2.7,11.0,87,0.00,,,0.00,WX3IN1Plus v1.30,2013-02-19 21:08:00,
2013-02-19 16:13:00,44.1,40.2,29.77,WSW,243,6.9,17.7,87,0.00,,,0.00,WX3IN1Plus v1.30,2013-02-19 21:13:00,
2013-02-19 16:18:00,44.1,40.2,29.77,SW,226,3.9,13.7,87,0.00,,,0.00,WX3IN1Plus v1.30,2013-02-19 21:18:00,
2013-02-19 16:23:00,44.0,39.9,29.77,WSW,251,5.5,13.0,87,0.00,,,0.00,WX3IN1Plus v1.30,2013-02-19 21:23:00,
2013-02-19 16:28:00,44.1,40.2,29.77,SW,222,5.1,8.9,87,0.00,,,0.00,WX3IN1Plus v1.30,2013-02-19 21:28:00,
2013-02-19 16:33:00,44.2,40.2,29.77,SW,236,4.2,13.1,87,0.00,,,0.00,WX3IN1Plus v1.30,2013-02-19 21:33:00,
2013-02-19 16:38:00,43.9,39.9,29.77,West,281,2.6,9.6,87,0.00,,,0.00,WX3IN1Plus v1.30,2013-02-19 21:38:00,
2013-02-19 16:43:00,44.2,40.2,29.77,WSW,255,8.8,13.6,87,0.00,,,0.00,WX3IN1Plus v1.30,2013-02-19 21:43:00,
2013-02-19 16:48:00,44.2,40.2,29.77,SSW,212,5.2,15.9,87,0.00,,,0.00,WX3IN1Plus v1.30,2013-02-19 21:48:00,
2013-02-19 16:53:00,44.1,40.2,29.77,West,264,7.5,16.4,87,0.00,,,0.00,WX3IN1Plus v1.30,2013-02-19 21:53:00,
2013-02-19 16:58:00,44.2,40.2,29.77,WSW,247,8.0,13.1,87,0.00,,,0.00,WX3IN1Plus v1.30,2013-02-19 21:58:00,
2013-02-19 17:03:00,43.4,37.7,29.77,WSW,247,7.1,16.6,81,0.00,,,0.00,WX3IN1Plus v1.30,2013-02-19 22:03:00,
2013-02-19 17:08:00,44.4,40.2,29.77,SW,233,6.5,11.1,86,0.00,,,0.00,WX3IN1Plus v1.30,2013-02-19 22:08:00,
2013-02-19 17:13:00,44.6,40.4,29.77,WSW,248,3.5,13.0,86,0.00,,,0.00,WX3IN1Plus v1.30,2013-02-19 22:13:00,
2013-02-19 17:18:00,44.6,40.4,29.77,SW,233,4.4,12.6,86,0.00,,,0.00,WX3IN1Plus v1.30,2013-02-19 22:18:00,
2013-02-19 17:23:00,44.4,40.2,29.77,West,281,9.5,10.8,86,0.00,,,0.00,WX3IN1Plus v1.30,2013-02-19 22:23:00,
2013-02-19 17:28:00,44.7,40.4,29.76,WSW,240,7.8,11.9,86,0.00,,,0.00,WX3IN1Plus v1.30,2013-02-19 22:28:00,
2013-02-19 17:33:00,44.7,40.2,29.76,SSW,198,3.4,10.8,85,0.00,,,0.00,WX3IN1Plus v1.30,2013-02-19 22:33:00,
2013-02-19 17:38:00,43.7,37.9,29.76,West,267,12.5,12.5,81,0.00,,,0.00,WX3IN1Plus v1.30,2013-02-19 22:38:00,
2013-02-19 17:43:00,44.6,40.2,29.77,West,275,2.9,14.2,85,0.00,,,0.00,WX3IN1Plus v1.30,2013-02-19 22:43:00,
2013-02-19 17:48:00,44.1,38.1,29.77,NW,313,1.0,10.4,80,0.00,,,0.00,WX3IN1Plus v1.30,2013-02-19 22:48:00,
2013-02-19 17:53:00,44.7,40.2,29.79,NNE,29,4.4,13.3,85,0.00,,,0.00,WX3IN1Plus v1.30,2013-02-19 22:53:00,
2013-02-19 17:58:00,43.7,37.7,29.78,WSW,248,5.7,10.1,80,0.00,,,0.00,WX3IN1Plus v1.30,2013-02-19 22:58:00,
2013-02-19 18:03:00,44.7,40.2,29.79,West,268,5.7,13.8,85,0.00,,,0.00,WX3IN1Plus v1.30,2013-02-19 23:03:00,
2013-02-19 18:08:00,44.7,40.4,29.77,WSW,243,6.6,9.2,86,0.01,,,0.01,WX3IN1Plus v1.30,2013-02-19 23:08:00,
2013-02-19 18:13:00,44.3,40.2,29.77,WSW,250,3.2,8.9,86,0.01,,,0.01,WX3IN1Plus v1.30,2013-02-19 23:13:00,
2013-02-19 18:18:00,44.2,39.9,29.77,WSW,250,1.3,10.7,86,0.01,,,0.01,WX3IN1Plus v1.30,2013-02-19 23:18:00,
2013-02-19 18:23:00,44.1,40.2,29.77,WNW,299,2.8,8.7,87,0.01,,,0.01,WX3IN1Plus v1.30,2013-02-19 23:23:00,
2013-02-19 18:29:00,43.8,39.7,29.77,WSW,246,1.8,8.0,87,0.01,,,0.01,WX3IN1Plus v1.30,2013-02-19 23:29:00,
2013-02-19 18:34:00,43.8,39.7,29.77,WSW,258,4.1,6.2,87,0.01,,,0.01,WX3IN1Plus v1.30,2013-02-19 23:34:00,
2013-02-19 18:39:00,43.8,39.7,29.77,West,271,3.4,8.0,87,0.01,,,0.01,WX3IN1Plus v1.30,2013-02-19 23:39:00,
2013-02-19 18:44:00,41.5,36.8,29.76,WNW,292,2.0,6.0,85,0.01,,,0.01,WX3IN1Plus v1.30,2013-02-19 23:44:00,
2013-02-19 18:49:00,43.7,39.7,29.78,WNW,302,0.0,5.9,87,0.01,,,0.01,WX3IN1Plus v1.30,2013-02-19 23:49:00,
2013-02-19 18:54:00,43.6,39.7,29.78,West,264,1.8,3.2,87,0.01,,,0.01,WX3IN1Plus v1.30,2013-02-19 23:54:00,
2013-02-19 18:59:00,43.4,39.5,29.79,WNW,289,3.3,4.3,87,0.01,,,0.01,WX3IN1Plus v1.30,2013-02-19 23:59:00,
2013-02-19 19:04:00,43.4,39.5,29.79,WNW,296,0.0,4.1,87,0.01,,,0.01,WX3IN1Plus v1.30,2013-02-20 00:04:00,
2013-02-19 19:09:00,43.2,39.5,29.79,NW,315,0.0,3.6,88,0.00,,,0.01,WX3IN1Plus v1.30,2013-02-20 00:09:00,
2013-02-19 19:14:00,43.1,39.5,29.80,WSW,246,2.2,4.2,88,0.00,,,0.01,WX3IN1Plus v1.30,2013-02-20 00:14:00,
2013-02-19 19:19:00,42.9,38.6,29.79,NW,324,1.1,3.2,86,0.00,,,0.01,WX3IN1Plus v1.30,2013-02-20 00:19:00,
2013-02-19 19:24:00,43.0,39.5,29.80,West,275,1.1,3.9,88,0.00,,,0.01,WX3IN1Plus v1.30,2013-02-20 00:24:00,
2013-02-19 19:29:00,42.0,37.9,29.79,West,260,0.6,3.7,86,0.00,,,0.01,WX3IN1Plus v1.30,2013-02-20 00:29:00,
2013-02-19 19:34:00,42.7,39.0,29.80,WSW,257,0.0,2.6,88,0.00,,,0.01,WX3IN1Plus v1.30,2013-02-20 00:34:00,
2013-02-19 19:39:00,42.2,38.1,29.79,WSW,250,1.4,3.6,87,0.00,,,0.01,WX3IN1Plus v1.30,2013-02-20 00:39:00,
2013-02-19 19:44:00,42.5,39.0,29.81,North,9,0.0,1.8,88,0.00,,,0.01,WX3IN1Plus v1.30,2013-02-20 00:44:00,
2013-02-19 19:49:00,41.1,37.2,29.80,West,262,0.0,2.6,87,0.00,,,0.01,WX3IN1Plus v1.30,2013-02-20 00:49:00,
2013-02-19 19:54:00,41.3,37.4,29.80,West,267,0.0,3.4,87,0.00,,,0.01,WX3IN1Plus v1.30,2013-02-20 00:54:00,
2013-02-19 19:59:00,42.3,38.6,29.81,NW,316,1.4,3.5,88,0.00,,,0.01,WX3IN1Plus v1.30,2013-02-20 00:59:00,
2013-02-19 20:04:00,42.1,38.4,29.82,WSW,241,1.8,4.5,88,0.00,,,0.01,WX3IN1Plus v1.30,2013-02-20 01:04:00,
2013-02-19 20:09:00,42.0,38.4,29.82,SW,215,0.8,3.8,88,0.00,,,0.01,WX3IN1Plus v1.30,2013-02-20 01:09:00,
2013-02-19 20:14:00,41.9,38.4,29.82,SW,236,0.0,4.1,88,0.00,,,0.01,WX3IN1Plus v1.30,2013-02-20 01:14:00,
2013-02-19 20:19:00,41.7,37.9,29.82,SSW,208,0.0,1.3,88,0.00,,,0.01,WX3IN1Plus v1.30,2013-02-20 01:19:00,
2013-02-19 20:24:00,41.6,38.1,29.83,WSW,247,0.8,3.8,89,0.00,,,0.01,WX3IN1Plus v1.30,2013-02-20 01:24:00,
2013-02-19 20:29:00,41.4,37.9,29.83,WSW,240,0.0,2.9,89,0.00,,,0.01,WX3IN1Plus v1.30,2013-02-20 01:29:00,
2013-02-19 20:34:00,41.2,37.9,29.83,WSW,239,0.7,2.9,89,0.00,,,0.01,WX3IN1Plus v1.30,2013-02-20 01:34:00,
2013-02-19 20:39:00,41.0,37.7,29.83,WNW,285,0.6,4.2,89,0.00,,,0.01,WX3IN1Plus v1.30,2013-02-20 01:39:00,
2013-02-19 20:44:00,40.7,37.4,29.83,West,275,0.0,3.4,89,0.00,,,0.01,WX3IN1Plus v1.30,2013-02-20 01:44:00,
2013-02-19 20:49:00,40.6,37.2,29.84,NW,310,0.0,3.3,89,0.00,,,0.01,WX3IN1Plus v1.30,2013-02-20 01:49:00,
2013-02-19 20:54:00,40.3,36.8,29.84,SW,233,0.0,2.1,89,0.00,,,0.01,WX3IN1Plus v1.30,2013-02-20 01:54:00,
2013-02-19 20:59:00,40.3,36.8,29.84,West,278,1.4,5.7,89,0.00,,,0.01,WX3IN1Plus v1.30,2013-02-20 01:59:00,
2013-02-19 21:04:00,40.0,36.6,29.84,SW,215,0.0,7.2,89,0.00,,,0.01,WX3IN1Plus v1.30,2013-02-20 02:04:00,
2013-02-19 21:09:00,40.1,36.5,29.84,West,278,1.1,7.6,87,0.00,,,0.01,WX3IN1Plus v1.30,2013-02-20 02:09:00,
2013-02-19 21:14:00,40.0,35.9,29.84,NNW,345,1.0,4.2,86,0.00,,,0.01,WX3IN1Plus v1.30,2013-02-20 02:14:00,
2013-02-19 21:19:00,40.0,35.4,29.84,West,267,0.0,3.0,84,0.00,,,0.01,WX3IN1Plus v1.30,2013-02-20 02:19:00,
2013-02-19 21:24:00,39.8,35.2,29.84,NNW,327,1.4,4.1,84,0.00,,,0.01,WX3IN1Plus v1.30,2013-02-20 02:24:00,
2013-02-19 21:29:00,39.7,34.1,29.84,NW,315,1.9,6.3,82,0.00,,,0.01,WX3IN1Plus v1.30,2013-02-20 02:29:00,
2013-02-19 21:34:00,39.8,34.1,29.84,NW,310,4.2,7.5,81,0.00,,,0.01,WX3IN1Plus v1.30,2013-02-20 02:34:00,
2013-02-19 21:39:00,39.8,33.4,29.84,NNE,12,3.9,8.7,79,0.00,,,0.01,WX3IN1Plus v1.30,2013-02-20 02:39:00,
2013-02-19 21:44:00,39.9,32.0,29.84,North,4,2.4,11.6,74,0.00,,,0.01,WX3IN1Plus v1.30,2013-02-20 02:44:00,
2013-02-19 21:49:00,40.2,31.9,29.84,NNE,14,3.7,12.9,72,0.00,,,0.01,WX3IN1Plus v1.30,2013-02-20 02:49:00,
2013-02-19 21:54:00,40.3,31.1,29.84,NNW,336,3.2,11.1,70,0.00,,,0.01,WX3IN1Plus v1.30,2013-02-20 02:54:00,
2013-02-19 21:59:00,40.3,31.0,29.84,NW,306,0.0,8.6,69,0.00,,,0.01,WX3IN1Plus v1.30,2013-02-20 02:59:00,
2013-02-19 22:04:00,40.3,31.1,29.84,NNW,330,1.3,6.5,70,0.00,,,0.01,WX3IN1Plus v1.30,2013-02-20 03:04:00,
2013-02-19 22:09:00,39.8,30.4,29.84,NW,322,3.1,7.5,69,0.00,,,0.01,WX3IN1Plus v1.30,2013-02-20 03:09:00,
2013-02-19 22:14:00,39.8,29.7,29.85,WNW,300,3.3,9.2,67,0.00,,,0.01,WX3IN1Plus v1.30,2013-02-20 03:14:00,
2013-02-19 22:19:00,39.6,28.6,29.85,NW,324,3.6,12.1,65,0.00,,,0.01,WX3IN1Plus v1.30,2013-02-20 03:19:00,
2013-02-19 22:24:00,39.7,28.6,29.85,North,2,3.9,7.7,65,0.00,,,0.01,WX3IN1Plus v1.30,2013-02-20 03:24:00,
2013-02-19 22:29:00,39.5,27.9,29.85,North,5,0.6,13.1,63,0.00,,,0.01,WX3IN1Plus v1.30,2013-02-20 03:29:00,
2013-02-19 22:34:00,39.5,27.9,29.86,NNW,327,3.9,8.0,63,0.00,,,0.01,WX3IN1Plus v1.30,2013-02-20 03:34:00,
2013-02-19 22:39:00,39.3,27.2,29.86,NNW,344,4.9,10.1,62,0.00,,,0.01,WX3IN1Plus v1.30,2013-02-20 03:39:00,
2013-02-19 22:44:00,39.3,27.0,29.86,NNW,336,4.9,10.4,61,0.00,,,0.01,WX3IN1Plus v1.30,2013-02-20 03:44:00,
2013-02-19 22:49:00,39.1,25.7,29.87,North,358,3.2,16.9,59,0.00,,,0.01,WX3IN1Plus v1.30,2013-02-20 03:49:00,
2013-02-19 22:54:00,39.1,25.0,29.87,NW,309,11.1,11.1,57,0.00,,,0.00,WX3IN1Plus v1.30,2013-02-20 03:54:00,
2013-02-19 22:59:00,39.1,24.7,29.87,NNW,333,4.1,13.4,56,0.00,,,0.00,WX3IN1Plus v1.30,2013-02-20 03:59:00,
2013-02-19 23:04:00,39.1,24.7,29.87,WNW,293,4.5,9.7,56,0.00,,,0.00,WX3IN1Plus v1.30,2013-02-20 04:04:00,
2013-02-19 23:09:00,39.0,24.7,29.87,NNW,341,9.7,9.8,56,0.00,,,0.00,WX3IN1Plus v1.30,2013-02-20 04:09:00,
2013-02-19 23:14:00,38.8,24.3,29.87,NNW,330,7.3,11.7,56,0.00,,,0.00,WX3IN1Plus v1.30,2013-02-20 04:14:00,
2013-02-19 23:19:00,38.8,24.3,29.87,NW,323,5.2,10.1,56,0.00,,,0.00,WX3IN1Plus v1.30,2013-02-20 04:19:00,
2013-02-19 23:24:00,38.6,23.6,29.88,NW,312,4.5,10.5,55,0.00,,,0.00,WX3IN1Plus v1.30,2013-02-20 04:24:00,
2013-02-19 23:29:00,38.6,24.1,29.88,WSW,257,1.7,9.7,56,0.00,,,0.00,WX3IN1Plus v1.30,2013-02-20 04:29:00,
2013-02-19 23:34:00,38.6,24.1,29.88,North,0,5.2,11.3,56,0.00,,,0.00,WX3IN1Plus v1.30,2013-02-20 04:34:00,
2013-02-19 23:39:00,38.2,23.4,29.88,North,7,1.2,14.4,55,0.00,,,0.00,WX3IN1Plus v1.30,2013-02-20 04:39:00,
2013-02-19 23:44:00,38.2,23.9,29.89,NNE,19,4.4,14.1,56,0.00,,,0.00,WX3IN1Plus v1.30,2013-02-20 04:44:00,
2013-02-19 23:49:00,38.1,23.2,29.88,NNW,330,3.5,11.1,55,0.00,,,0.00,WX3IN1Plus v1.30,2013-02-20 04:49:00,
2013-02-19 23:54:00,37.9,23.4,29.88,NNW,345,5.1,8.0,56,0.00,,,0.00,WX3IN1Plus v1.30,2013-02-20 04:54:00,
2013-02-19 23:59:00,37.9,23.4,29.88,North,1,4.4,11.0,56,0.00,,,0.00,WX3IN1Plus v1.30,2013-02-20 04:59:00,